2025-131C

Last updated on Wed Jul 02 2025 00:02:07 GMT+0000 (Coordinated Universal Time)

1 64469U 25131C 25182.54659545 .00005993 00000+0 18529-2 0 9994 2 64469 61.1360 273.4147 6896714 178.2517 187.0692 2.76865180 262
UTC large
Height (km)
Speed (km/s)
/
Latitude / Longitude
Inclination (degrees)
Orbital Period (minutes)
Azimuth
Elevation
Range (km)
Doppler Factor

Next 0 passes for location: London (51.5072 / 0.1276)

Sorry there are no passes over London.